Location: Gleizolles
(44.4833°N, 6.7667°E)
Time: 17:05:54
(UTC+00:00)

Explorer 7 - Pass Details

Date: 18 June 2024
Orbit: 465 x 619 km, 50.3° (Epoch: 12 July)

Event Time Altitude Azimuth Distance (km) Brightness Sun altitude
Rises 17:23:02 0° 296° (WNW) 2,510 11.8 18.1°
Reaches altitude 10° 17:25:12 10° 294° (WNW) 1,623 11.5 17.7°
Maximum altitude 17:28:49 67° 212° (SSW) 508 7.0 17.1°
Drops below altitude 10° 17:32:26 10° 129° (SE) 1,619 8.7 16.5°
Sets 17:34:36 0° 127° (SE) 2,502 9.6 16.1°
